When you browse on this site, cookies collect data to enhance your experience and personalize the content and advertising you see.
Visit our Privacy Policy to learn more. By continuing to use the site, you agree to this use of cookies and data.
  • în România
  • Lista ţărilor
  • Pe 7 zile
  • Temperatura apei
  • Hartă satelitară
  • Meteo pe hartă
  • Widget-uri
  • user-avatar
    Intrare

    Meteo pe oră la Ploscha

    Astăzi, 21 Martie, Joi

    Timp Temperatura Precipitaţii Vânt Presiune Umiditate
    00:00 -1°C° 0.4 mm 3 m/s 749 mmHg 83%
    01:00 -1°C° 0.4 mm 3 m/s 748 mmHg 85%
    02:00 -1°C° 0 mm 3 m/s 748 mmHg 90%
    03:00 0°C° 0.6 mm 3 m/s 747 mmHg 90%
    04:00 0°C° 0.6 mm 3 m/s 747 mmHg 91%
    05:00 0°C° 0.6 mm 3 m/s 747 mmHg 91%
    06:00 0°C° 0 mm 3 m/s 747 mmHg 90%
    07:00 +1°C° 0 mm 3 m/s 748 mmHg 88%
    08:00 0°C° 0 mm 4 m/s 748 mmHg 86%
    09:00 +1°C° 0 mm 4 m/s 748 mmHg 84%
    10:00 +1°C° 0 mm 4 m/s 749 mmHg 82%
    11:00 +3°C° 0 mm 4 m/s 749 mmHg 80%
    12:00 +4°C° 0 mm 4 m/s 749 mmHg 75%
    13:00 +5°C° 0 mm 4 m/s 749 mmHg 70%
    14:00 +6°C° 0 mm 4 m/s 749 mmHg 65%
    15:00 +7°C° 0 mm 3 m/s 749 mmHg 68%
    16:00 +5°C° 0 mm 3 m/s 749 mmHg 71%
    17:00 +6°C° 0 mm 2 m/s 748 mmHg 74%
    18:00 +5°C° 0 mm 2 m/s 748 mmHg 79%
    19:00 +3°C° 0 mm 2 m/s 748 mmHg 83%
    20:00 +2°C° 0 mm 2 m/s 748 mmHg 87%
    21:00 +3°C° 0 mm 2 m/s 747 mmHg 88%
    22:00 +3°C° 0 mm 2 m/s 747 mmHg 88%
    23:00 +2°C° 0 mm 3 m/s 746 mmHg 88%

    Mâine, 22 Martie, Vineri

    Timp Temperatura Precipitaţii Vânt Presiune Umiditate
    00:00 +2°C° 0.3 mm 3 m/s 746 mmHg 90%
    01:00 +3°C° 0.3 mm 3 m/s 745 mmHg 91%
    02:00 +3°C° 0.3 mm 4 m/s 744 mmHg 92%
    03:00 +3°C° 0.7 mm 4 m/s 743 mmHg 92%
    04:00 +4°C° 0.7 mm 4 m/s 743 mmHg 92%
    05:00 +3°C° 0.7 mm 5 m/s 742 mmHg 93%
    06:00 +2°C° 0.5 mm 6 m/s 742 mmHg 87%
    07:00 +2°C° 0.5 mm 6 m/s 742 mmHg 82%
    08:00 0°C° 0.5 mm 7 m/s 743 mmHg 77%
    09:00 0°C° 0.1 mm 7 m/s 744 mmHg 71%
    10:00 0°C° 0.1 mm 8 m/s 745 mmHg 65%
    11:00 0°C° 0.1 mm 8 m/s 745 mmHg 59%
    12:00 -1°C° 0.1 mm 7 m/s 746 mmHg 62%
    13:00 -1°C° 0.1 mm 7 m/s 746 mmHg 65%
    14:00 -1°C° 0.1 mm 7 m/s 747 mmHg 67%
    15:00 -1°C° 0.1 mm 7 m/s 747 mmHg 69%
    16:00 -2°C° 0.1 mm 7 m/s 747 mmHg 71%
    17:00 -2°C° 0.1 mm 7 m/s 747 mmHg 73%
    18:00 -2°C° 0.1 mm 7 m/s 748 mmHg 74%
    19:00 -2°C° 0.1 mm 7 m/s 749 mmHg 75%
    20:00 -2°C° 0.1 mm 6 m/s 749 mmHg 76%
    21:00 -2°C° 0 mm 6 m/s 749 mmHg 77%
    22:00 -2°C° 0 mm 6 m/s 750 mmHg 78%
    23:00 -2°C° 0 mm 6 m/s 750 mmHg 80%

    Poimâine, 23 Martie, Sâmbătă

    Timp Temperatura Precipitaţii Vânt Presiune Umiditate
    00:00 -2°C° 0 mm 5 m/s 751 mmHg 81%
    01:00 -2°C° 0 mm 5 m/s 751 mmHg 83%
    02:00 -2°C° 0 mm 4 m/s 751 mmHg 84%
    03:00 -2°C° 0 mm 4 m/s 752 mmHg 86%
    04:00 -3°C° 0 mm 4 m/s 752 mmHg 87%
    05:00 -2°C° 0 mm 3 m/s 752 mmHg 89%
    06:00 -2°C° 0 mm 3 m/s 752 mmHg 88%
    07:00 -2°C° 0 mm 3 m/s 753 mmHg 86%
    08:00 -1°C° 0 mm 3 m/s 753 mmHg 84%
    09:00 +1°C° 0 mm 2 m/s 753 mmHg 81%
    10:00 +3°C° 0 mm 1 m/s 753 mmHg 77%
    11:00 +4°C° 0 mm 1 m/s 753 mmHg 73%
    12:00 +4°C° 0 mm 1 m/s 752 mmHg 70%
    13:00 +5°C° 0 mm 1 m/s 752 mmHg 67%
    14:00 +6°C° 0 mm 1 m/s 751 mmHg 64%
    15:00 +6°C° 0 mm 1 m/s 751 mmHg 67%
    16:00 +6°C° 0 mm 1 m/s 750 mmHg 69%
    17:00 +4°C° 0 mm 2 m/s 750 mmHg 71%
    18:00 +3°C° 0 mm 2 m/s 749 mmHg 74%
    19:00 +2°C° 0 mm 3 m/s 749 mmHg 77%
    20:00 +1°C° 0 mm 3 m/s 749 mmHg 80%
    21:00 +1°C° 0.2 mm 3 m/s 748 mmHg 77%
    22:00 +1°C° 0.2 mm 3 m/s 747 mmHg 74%
    23:00 0°C° 0.2 mm 4 m/s 746 mmHg 71%

    24 Martie, Duminică

    Timp Temperatura Precipitaţii Vânt Presiune Umiditate
    00:00 +1°C° 1.1 mm 3 m/s 746 mmHg 75%
    01:00 +1°C° 1.1 mm 3 m/s 745 mmHg 79%
    02:00 +1°C° 1.1 mm 3 m/s 745 mmHg 82%
    03:00 +1°C° 0.1 mm 3 m/s 745 mmHg 86%
    04:00 +2°C° 0.1 mm 3 m/s 745 mmHg 89%
    05:00 +3°C° 0.1 mm 2 m/s 744 mmHg 93%
    06:00 +2°C° 0 mm 3 m/s 745 mmHg 91%
    07:00 +1°C° 0 mm 3 m/s 745 mmHg 89%
    08:00 0°C° 0 mm 4 m/s 745 mmHg 88%
    09:00 +1°C° 0 mm 4 m/s 745 mmHg 79%
    10:00 +3°C° 0 mm 4 m/s 745 mmHg 71%
    11:00 +3°C° 0 mm 5 m/s 745 mmHg 63%
    12:00 +3°C° 0 mm 5 m/s 745 mmHg 59%
    13:00 +3°C° 0 mm 5 m/s 745 mmHg 56%
    14:00 +3°C° 0 mm 6 m/s 745 mmHg 52%
    15:00 +3°C° 0.1 mm 5 m/s 745 mmHg 55%
    16:00 +3°C° 0.1 mm 4 m/s 745 mmHg 57%
    17:00 +2°C° 0.1 mm 3 m/s 745 mmHg 60%
    18:00 +1°C° 0 mm 3 m/s 745 mmHg 64%
    19:00 0°C° 0 mm 3 m/s 745 mmHg 69%
    20:00 -1°C° 0 mm 2 m/s 745 mmHg 73%
    21:00 -2°C° 0 mm 2 m/s 745 mmHg 75%
    22:00 -2°C° 0 mm 2 m/s 745 mmHg 76%
    23:00 -3°C° 0 mm 2 m/s 745 mmHg 77%

    25 Martie, Luni

    Timp Temperatura Precipitaţii Vânt Presiune Umiditate
    00:00 -3°C° 0 mm 2 m/s 745 mmHg 78%
    01:00 -3°C° 0 mm 2 m/s 745 mmHg 78%
    02:00 -3°C° 0 mm 2 m/s 745 mmHg 79%
    03:00 -3°C° 0 mm 2 m/s 745 mmHg 81%
    04:00 -3°C° 0 mm 2 m/s 744 mmHg 82%
    05:00 -4°C° 0 mm 2 m/s 744 mmHg 84%
    06:00 -3°C° 0 mm 2 m/s 744 mmHg 80%
    07:00 -2°C° 0 mm 2 m/s 744 mmHg 76%
    08:00 -1°C° 0 mm 2 m/s 744 mmHg 71%
    09:00 +1°C° 0 mm 2 m/s 743 mmHg 67%
    10:00 +3°C° 0 mm 2 m/s 743 mmHg 62%
    11:00 +3°C° 0 mm 3 m/s 743 mmHg 58%
    12:00 +3°C° 0.1 mm 3 m/s 742 mmHg 57%
    13:00 +4°C° 0.1 mm 3 m/s 742 mmHg 56%
    14:00 +4°C° 0.1 mm 3 m/s 741 mmHg 56%
    15:00 +3°C° 0.1 mm 3 m/s 741 mmHg 58%
    16:00 +4°C° 0.1 mm 2 m/s 740 mmHg 60%
    17:00 +5°C° 0.1 mm 1 m/s 740 mmHg 62%
    18:00 +2°C° 0 mm 2 m/s 739 mmHg 67%
    19:00 +1°C° 0 mm 2 m/s 739 mmHg 72%
    20:00 -1°C° 0 mm 2 m/s 739 mmHg 77%
    21:00 -1°C° 0 mm 2 m/s 739 mmHg 79%
    22:00 -1°C° 0 mm 2 m/s 738 mmHg 80%
    23:00 -2°C° 0 mm 2 m/s 738 mmHg 82%

    26 Martie, Marţi

    Timp Temperatura Precipitaţii Vânt Presiune Umiditate
    00:00 -1°C° 0.5 mm 2 m/s 738 mmHg 85%
    01:00 -1°C° 0.5 mm 2 m/s 738 mmHg 88%
    02:00 -1°C° 0.5 mm 2 m/s 738 mmHg 91%
    03:00 -1°C° 0.6 mm 2 m/s 738 mmHg 93%
    04:00 -1°C° 0.6 mm 2 m/s 738 mmHg 94%
    05:00 -1°C° 0.6 mm 2 m/s 738 mmHg 95%
    06:00 -1°C° 0.3 mm 2 m/s 738 mmHg 94%
    07:00 -1°C° 0.3 mm 2 m/s 738 mmHg 92%
    08:00 0°C° 0.3 mm 3 m/s 739 mmHg 91%
    09:00 0°C° 0.2 mm 3 m/s 739 mmHg 88%
    10:00 0°C° 0.2 mm 4 m/s 739 mmHg 86%
    11:00 0°C° 0.2 mm 4 m/s 740 mmHg 83%
    12:00 0°C° 0.2 mm 4 m/s 740 mmHg 83%
    13:00 0°C° 0.2 mm 4 m/s 740 mmHg 82%
    14:00 +1°C° 0.2 mm 5 m/s 741 mmHg 82%
    15:00 0°C° 0.1 mm 5 m/s 741 mmHg 82%
    16:00 0°C° 0.1 mm 5 m/s 741 mmHg 83%
    17:00 0°C° 0.1 mm 5 m/s 742 mmHg 84%
    18:00 -1°C° 0 mm 4 m/s 743 mmHg 85%
    19:00 -1°C° 0 mm 4 m/s 743 mmHg 85%
    20:00 -1°C° 0 mm 4 m/s 744 mmHg 86%
    21:00 -2°C° 0 mm 4 m/s 744 mmHg 87%
    22:00 -2°C° 0 mm 4 m/s 745 mmHg 88%
    23:00 -2°C° 0 mm 4 m/s 745 mmHg 89%
    Arată mai mult